User: anonymous   Login
Location: Syracuse
(43.0480°N, 76.1480°W)
Time: 23:05:22
(UTC-04:00)
Language:

Cosmos 1140 Rocket - Orbit

View from above orbital plane
View from above orbital plane
View from above satellite
View from above satellite

Ground track
Ground track

The orbit data is extracted from the following two-line orbital elements,

1 11574U 79089B   17293.47461081  .00000080  00000-0  33407-4 0  9993
2 11574  74.0708 347.7856 0016700 224.3124 135.6696 14.40645705995182
Epoch (UTC): 20 October 2017 11:23:26
Eccentricity: 0.0016700
inclination: 74.0708°
perigee height: 744 km
apogee height: 768 km
right ascension of ascending node: 347.7856°
argument of perigee: 224.3124°
revolutions per day: 14.40645705
mean anomaly at epoch: 135.6696°
orbit number at epoch: 99518

The dashed part of the orbit path shows where the satellite is in the earth's shadow,  

DLR